Regional Weather Roundup
Issued by NWS

Home | Current Version | Previous Version | Text Only | Print | Product List | Glossary On
Versions: 1 2 3 4 5 6 7 8 9 10 11 12 13 14 15 16 17 18 19 20 21 22 23 24 25 26 27 28 29 30 31 32 33 34 35 36 37 38 39 40 41 42 43 44 45 46 47 48 49 50
000
ASUS45 KBOI 242110
RWRID
WEATHER ROUNDUP FOR IDAHO
NATIONAL WEATHER SERVICE BOISE ID
200 PM MST MON NOV 24 2014

NOTE: "FAIR" INDICATES FEW OR NO CLOUDS BELOW 12000 FEET
WITH NO SIGNIFICANT WEATHER AND/OR OBSTRUCTIONS TO VISIBILITY

IDZ012-014-242200-
SOUTHWEST IDAHO


CITY           SKY/WX    TMP DP  RH WIND       PRES   REMARKS
BOISE          SUNNY     46  27  47 N9        30.41F
CALDWELL       NOT AVBL
MOUNTAIN HOME  SUNNY     45  29  54 NW10      30.41F
$$

IDZ016-017-242200-
SOUTHCENTRAL IDAHO


CITY           SKY/WX    TMP DP  RH WIND       PRES   REMARKS
BURLEY           N/A     42  26  53 W22G29    30.36S
JEROME         SUNNY     41  26  55 SW22G30   30.39S
TWIN FALLS     SUNNY     44  26  49 W21       30.40S
$$

IDZ019>023-242200-
SOUTHEAST IDAHO


CITY           SKY/WX    TMP DP  RH WIND       PRES   REMARKS
IDAHO FALLS    MOSUNNY   40  18  41 S9        30.31R WCI  34
POCATELLO      MOSUNNY   40  25  55 SW20      30.36R WCI  30
REXBURG        SUNNY     39  11  31 MISG      30.29S
$$

IDZ006-010-011-018-031-032-242200-
CENTRAL IDAHO MOUNTAINS


CITY           SKY/WX    TMP DP  RH WIND       PRES   REMARKS
MCCALL         PTSUNNY   29  24  82 CALM      30.35F
HAILEY         MOSUNNY   36  18  48 SE13      30.33R WCI  27
STANLEY          N/A     33  12  41 CALM      30.33S
SALMON         SUNNY     37  21  52 NW3       30.32S
CHALLIS        SUNNY     36  12  37 SE8       30.31S WCI  30
$$

IDZ002-004-006-007-026-242200-
NORTHERN IDAHO


CITY           SKY/WX    TMP DP  RH WIND       PRES   REMARKS
LEWISTON       CLOUDY    45  35  68 CALM      30.35F
LOWELL           N/A     43  38  82 CALM      30.40F
COEUR D`ALENE  CLOUDY    37  30  75 S9        30.30F WCI  31
MULLAN PASS    CLOUDY    24  21  88 W8G20     30.21F WCI  15
$$



USA.gov is the U.S. government's official web portal to all federal, state and local government web resources and services.